Location: Clyde
(45.1830°S, 169.3170°E)
Time: 05:56:14
(UTC+12:00)

CENTAUR R/B - Pass Details

Date: 24 January 2019
Orbit: 787 x 1401 km, 63.5° (Epoch: 20 April)

Event Time Altitude Azimuth Distance (km) Brightness Sun altitude
Exits shadow 23:29:11 20° 66° (ENE) 2,541 4.2 -17.6°
Maximum altitude 23:29:40 20° 71° (ENE) 2,523 4.2 -17.6°
Drops below altitude 10° 23:34:43 10° 114° (ESE) 3,067 5.0 -18.2°
Sets 23:38:04 0° 130° (SE) 3,923 5.7 -18.5°
